[[{"header":{"parameterUnit":"m.s-1","parameterCategory":1,"la1":30.2991,"la2":30.254,"lo1":-89.0895,"lo2":-89.0444,"dy":0.0017,"dx":0.0017,"nx":28,"ny":28,"refTime":"2025-07-21T21:00:00:Z","depth":0,"parameterNumber":2,"parameterNumberName":"U-component_of_WINDS"},"data":[0,0,0,0,0,0,0,0,0,0,0,0,0,0,0,0,0,0,0,0,0,0,0,0,0,0,0,0,0,0,0,0,0,0,0,0,0,0,0,0,0,0,0,0,0,0,0,0,0,0,0,0,0,0,0,0,0,0,1.5401,1.5402,0,1.5507,1.5508,1.5509,1.5541,1.554,1.554,1.5539,1.5652,1.5656,1.5659,0,0,0,0,0,0,0,0,0,0,0,0,0,1.5231,1.5234,1.54,1.5402,1.5403,1.5506,1.5508,1.5509,1.5541,1.554,1.554,1.5539,1.5651,1.5655,1.566,0,0,0,0,0,0,0,0,0,0,0,0,0,1.5318,1.5235,1.54,1.5431,1.5435,1.5506,1.5508,1.551,1.5541,1.554,1.554,1.5539,1.565,1.5655,1.566,1.5709,0,0,1.5676,1.5679,0,0,0,0,0,0,0,0,1.5313,1.5324,1.5425,1.5429,1.5434,1.551,1.549,1.5577,1.5541,1.5501,1.5539,1.5538,1.5606,1.5615,1.5636,1.5714,1.5719,1.5677,1.568,1.5682,1.5684,0,0,0,0,0,0,0,1.5307,1.532,1.5443,1.5427,1.5432,1.5442,1.5453,1.5506,1.5557,1.5505,1.5507,1.5519,1.5608,1.5631,1.5639,1.5721,1.5677,1.5681,1.5685,1.5687,1.5848,1.5849,0,0,0,0,0,0,1.5295,1.5314,1.5439,1.5446,1.537,1.5446,1.5458,1.5486,1.5556,1.5566,1.552,1.552,1.5623,1.5633,1.5643,1.5707,1.5682,1.5687,1.569,1.5847,1.5848,1.5849,0,0,0,0,0,0,1.5291,1.5306,1.5435,1.5381,1.5398,1.5449,1.548,1.5489,1.5512,1.5568,1.5577,1.5534,1.5622,1.5636,1.5693,1.5712,1.5689,1.5694,1.5846,1.5847,1.5849,1.5834,0,0,0,0,0,0,1.5286,1.5304,1.5321,1.5381,1.5401,1.5481,1.5481,1.5491,1.5521,1.5522,1.5584,1.5593,1.5623,1.5685,1.5698,1.5718,1.5698,1.5844,1.5846,1.5848,1.5833,1.5835,1.5836,0,0,0,0,0,1.528,1.5313,1.5322,1.5337,1.5423,1.5482,1.5493,1.5526,1.5522,1.5541,1.5577,1.5591,1.5707,1.569,1.5706,1.5728,1.5843,1.5846,1.5848,1.5832,1.5834,1.5836,0,0,0,0,0,0,1.5255,1.5322,1.5332,1.5385,1.5428,1.5487,1.5512,1.5527,1.5572,1.5571,1.5611,1.5625,1.568,1.571,1.569,1.5781,1.5776,1.5782,1.5759,1.5761,1.5763,1.5755,1.5703,0,0,0,0,0,1.5256,1.5296,1.5353,1.5394,1.5415,1.546,1.5486,1.5508,1.5554,1.5572,1.5612,1.5657,1.5705,1.5735,1.5781,1.5838,1.5853,1.5861,1.5863,1.5864,1.5868,1.5903,1.5908,1.5858,1.5858,1.5858,0,0,1.5258,1.5299,1.5322,1.5391,1.5426,1.5468,1.5474,1.5519,1.5551,1.5579,1.5635,1.5667,1.572,1.5778,1.5805,1.5805,1.5886,1.5867,1.5867,1.5872,1.5906,1.5911,1.5915,1.5859,1.5859,1.5859,0,0,1.5284,1.5318,1.5358,1.5393,1.5446,1.5476,1.5486,1.5544,1.5565,1.5622,1.5644,1.5685,1.5765,1.5802,1.5832,1.5875,1.589,1.5889,1.5899,1.5932,1.5936,1.594,1.5956,1.5962,1.5894,1.5894,1.5894,0,1.528,1.5343,1.5377,1.542,1.5451,1.5477,1.5519,1.5553,1.5618,1.564,1.5638,1.574,1.5778,1.5846,1.5856,1.5879,1.5893,1.5882,1.5932,1.5936,1.594,1.5957,1.5963,1.5893,1.5893,1.5893,1.5893,0,1.5337,1.5381,1.5407,1.5469,1.5503,1.5545,1.5587,1.5618,1.5637,1.5668,1.5728,1.5774,1.5831,1.5849,1.5868,1.5921,1.5919,1.5924,1.592,1.5944,1.5961,1.5967,1.5893,1.5893,1.5893,1.5893,0,0,1.5348,1.543,1.5439,1.5469,1.5531,1.5566,1.5612,1.5667,1.5693,1.5738,1.5779,1.5847,1.5853,1.5886,1.5911,1.594,1.5973,1.5942,1.5944,1.5947,1.6036,1.6032,1.6038,1.5984,1.5985,1.5986,1.6032,0,1.5383,1.5462,1.5495,1.5561,1.5603,1.563,1.567,1.5714,1.5745,1.5787,1.5822,1.587,1.5873,1.5894,1.5924,1.5963,1.5992,1.596,1.6024,1.6025,1.6009,1.6047,1.6042,1.6083,1.6038,1.604,1.604,0,1.5432,1.5478,1.5547,1.5606,1.5625,1.566,1.5715,1.5754,1.5805,1.5826,1.5865,1.5888,1.5939,1.5932,1.6004,1.5982,1.601,1.6033,1.6036,1.6043,1.6034,1.6056,1.6096,1.6102,1.6051,1.605,1.6049,0,1.5435,1.5514,1.5566,1.5591,1.5661,1.5685,1.5715,1.5766,1.5797,1.5846,1.5867,1.5921,1.5951,1.5993,1.6032,1.6023,1.6101,1.6097,1.6121,1.612,1.6136,1.6135,1.6182,1.6154,1.6154,1.6154,1.6153,0,1.547,1.5512,1.5569,1.5601,1.565,1.5688,1.5736,1.5769,1.5814,1.5854,1.5882,1.592,1.5968,1.6013,1.6044,1.61,1.6113,1.6133,1.614,1.613,1.6128,1.6149,1.6148,1.6155,1.6155,1.6155,1.6154,0,1.5481,1.5521,1.558,1.5641,1.5658,1.5691,1.5745,1.5779,1.5812,1.5863,1.5878,1.593,1.5984,1.6027,1.6098,1.6119,1.6179,1.6187,1.6161,1.6165,1.6187,1.6185,1.625,1.6262,1.6225,1.6225,1.6225,0,1.5501,1.5534,1.5599,1.5628,1.5658,1.5704,1.5737,1.5777,1.5811,1.5873,1.5899,1.5956,1.6003,1.6089,1.6135,1.619,1.62,1.622,1.6209,1.6198,1.6202,1.62,1.6204,1.6221,1.6221,1.6221,1.6221,0,1.5532,1.5551,1.5596,1.5649,1.5687,1.5731,1.5776,1.5799,1.5848,1.5884,1.594,1.5976,1.605,1.6106,1.6166,1.62,1.622,1.6225,1.6233,1.6223,1.6207,1.6217,1.6165,1.6223,1.6223,1.6223,1.6222,1.6222,1.5549,1.558,1.5631,1.5682,1.572,1.5762,1.5797,1.5834,1.5881,1.5943,1.5965,1.6022,1.6076,1.6159,1.6193,1.6241,1.6242,1.6254,1.6257,1.626,1.6259,1.62,1.6252,1.6252,1.6252,1.6252,1.6252,0,1.5582,1.5617,1.5663,1.5725,1.5765,1.5779,1.5831,1.5864,1.5914,1.5961,1.6008,1.6073,1.6129,1.6179,1.6237,1.6266,1.6276,1.628,1.6278,1.6286,1.6255,1.6241,1.627,1.627,1.627,1.627,1.627,1.627,1.5604,1.5658,1.5683,1.5758,1.5793,1.5849,1.5877,1.5917,1.5955,1.6027,1.6072,1.6105,1.6155,1.6217,1.627,1.6283,1.6304,1.6305,1.6321,1.6291,1.6288,1.6286,1.6274,1.6309,1.6309,1.6349,1.635,1.635]},{"header":{"parameterUnit":"m.s-1","parameterCategory":1,"la1":30.2991,"la2":30.254,"lo1":-89.0895,"lo2":-89.0444,"dy":0.0017,"dx":0.0017,"nx":28,"ny":28,"refTime":"2025-07-21T21:00:00:Z","depth":0,"parameterNumber":3,"parameterNumberName":"V-component_of_WINDS"},"data":[0,0,0,0,0,0,0,0,0,0,0,0,0,0,0,0,0,0,0,0,0,0,0,0,0,0,0,0,0,0,0,0,0,0,0,0,0,0,0,0,0,0,0,0,0,0,0,0,0,0,0,0,0,0,0,0,0,0,1.9072,1.9073,0,1.9102,1.9103,1.9103,1.9117,1.9117,1.9117,1.9116,1.9145,1.9146,1.9146,0,0,0,0,0,0,0,0,0,0,0,0,0,1.9021,1.9021,1.9072,1.9073,1.9073,1.9102,1.9103,1.9103,1.9117,1.9117,1.9116,1.9116,1.9145,1.9146,1.9146,0,0,0,0,0,0,0,0,0,0,0,0,0,1.9046,1.9022,1.9072,1.9083,1.9084,1.9102,1.9103,1.9103,1.9117,1.9117,1.9116,1.9116,1.9144,1.9145,1.9147,1.9155,0,0,1.915,1.9151,0,0,0,0,0,0,0,0,1.9045,1.9048,1.9081,1.9082,1.9084,1.9106,1.9095,1.9121,1.9117,1.9104,1.9116,1.9116,1.9132,1.9134,1.914,1.9156,1.9157,1.915,1.9151,1.9152,1.9152,0,0,0,0,0,0,0,1.9043,1.9047,1.9084,1.9082,1.9083,1.9085,1.9088,1.91,1.9118,1.9105,1.9106,1.911,1.9132,1.9138,1.914,1.9158,1.915,1.9151,1.9152,1.9153,1.9178,1.9178,0,0,0,0,0,0,1.904,1.9045,1.9083,1.9085,1.9064,1.9086,1.909,1.9099,1.9118,1.9121,1.911,1.911,1.9136,1.9139,1.9141,1.915,1.9152,1.9153,1.9153,1.9178,1.9178,1.9178,0,0,0,0,0,0,1.9039,1.9043,1.9082,1.9065,1.907,1.9087,1.9097,1.9099,1.9106,1.9121,1.9124,1.9113,1.9137,1.914,1.9151,1.9151,1.9153,1.9154,1.9178,1.9178,1.9178,1.9168,0,0,0,0,0,0,1.9037,1.9043,1.9048,1.9065,1.9071,1.9092,1.9097,1.91,1.9108,1.9109,1.9125,1.9128,1.9137,1.9149,1.9152,1.9153,1.9155,1.9178,1.9178,1.9178,1.9168,1.9168,1.9167,0,0,0,0,0,1.9035,1.9044,1.9048,1.9052,1.9078,1.9092,1.9096,1.9107,1.9108,1.9112,1.9121,1.9127,1.915,1.915,1.9153,1.9155,1.9178,1.9178,1.9178,1.9169,1.9168,1.9167,0,0,0,0,0,0,1.9026,1.9047,1.9051,1.9066,1.9077,1.9095,1.91,1.9106,1.9117,1.9117,1.9129,1.9133,1.9141,1.9149,1.9148,1.9161,1.9164,1.9165,1.9156,1.9155,1.9155,1.9152,1.9156,0,0,0,0,0,1.9026,1.9037,1.9054,1.9065,1.9071,1.9084,1.9091,1.9098,1.911,1.9115,1.9125,1.9135,1.9144,1.915,1.916,1.9169,1.9171,1.9171,1.9171,1.917,1.917,1.9172,1.9171,1.9178,1.9178,1.9178,0,0,1.9025,1.9038,1.9044,1.9064,1.9073,1.9082,1.9088,1.9099,1.9105,1.9116,1.9127,1.9134,1.9146,1.9155,1.916,1.9162,1.9168,1.917,1.9169,1.917,1.9172,1.9171,1.917,1.9178,1.9178,1.9178,0,0,1.9029,1.9041,1.905,1.9059,1.9073,1.9081,1.9083,1.9099,1.9104,1.9115,1.9122,1.9128,1.9145,1.9152,1.9158,1.9159,1.9164,1.9162,1.9158,1.916,1.9159,1.9159,1.9157,1.9156,1.9162,1.9162,1.9162,0,1.9026,1.9042,1.9054,1.9063,1.907,1.9079,1.9087,1.9095,1.9111,1.9114,1.9116,1.9135,1.9144,1.9153,1.9153,1.9158,1.9158,1.9161,1.9159,1.9158,1.9158,1.9156,1.9156,1.9162,1.9162,1.9162,1.9162,0,1.9037,1.9047,1.9053,1.9067,1.9075,1.9083,1.9094,1.9099,1.9105,1.9112,1.912,1.9131,1.9141,1.9144,1.915,1.9152,1.9153,1.9157,1.916,1.9157,1.9155,1.9155,1.9161,1.9161,1.9161,1.9162,0,0,1.9038,1.9056,1.9058,1.9063,1.9077,1.9085,1.9092,1.9102,1.9105,1.9115,1.9119,1.9131,1.9134,1.914,1.9146,1.9148,1.9144,1.9151,1.9151,1.9147,1.9144,1.9141,1.914,1.9147,1.9147,1.9147,1.9143,0,1.9042,1.9057,1.9065,1.9075,1.9083,1.909,1.9096,1.9104,1.911,1.9116,1.9122,1.9129,1.9133,1.9136,1.9138,1.9144,1.9144,1.9145,1.9149,1.915,1.9146,1.914,1.9137,1.9132,1.9142,1.9142,1.9142,0,1.905,1.9059,1.9069,1.9079,1.9083,1.9088,1.9096,1.9102,1.911,1.9113,1.9119,1.9124,1.9129,1.9132,1.9137,1.9137,1.9139,1.9142,1.9142,1.9142,1.9145,1.9138,1.9131,1.9129,1.9142,1.9142,1.9142,0,1.9047,1.9061,1.9068,1.9073,1.9085,1.9088,1.9093,1.9101,1.9105,1.9111,1.9113,1.912,1.9123,1.9127,1.9132,1.9134,1.9136,1.914,1.9137,1.9137,1.9137,1.9137,1.9129,1.914,1.914,1.914,1.914,0,1.905,1.9056,1.9067,1.9071,1.9076,1.9085,1.9089,1.9094,1.91,1.9104,1.911,1.9113,1.9122,1.9125,1.9129,1.9131,1.9133,1.9134,1.9135,1.9133,1.9133,1.9134,1.9134,1.914,1.914,1.914,1.914,0,1.9048,1.9056,1.9064,1.9074,1.9076,1.9079,1.9087,1.909,1.9095,1.9099,1.91,1.9108,1.9112,1.9118,1.9124,1.9126,1.9126,1.9129,1.9124,1.9124,1.912,1.912,1.9112,1.911,1.9124,1.9124,1.9124,0,1.905,1.9054,1.9063,1.9066,1.9071,1.9076,1.9079,1.9086,1.909,1.9096,1.9098,1.9102,1.9105,1.911,1.9115,1.9118,1.912,1.9117,1.9121,1.9117,1.9117,1.9117,1.9116,1.9116,1.9116,1.9116,1.9115,0,1.905,1.9053,1.9058,1.9064,1.9068,1.9073,1.9078,1.9079,1.9087,1.9089,1.9093,1.9096,1.91,1.9103,1.9106,1.9109,1.9112,1.9114,1.9113,1.9111,1.9107,1.9107,1.912,1.9114,1.9114,1.9114,1.9115,1.9115,1.9049,1.9051,1.9057,1.9062,1.9066,1.907,1.9072,1.9076,1.908,1.9084,1.9087,1.909,1.9093,1.9098,1.91,1.9101,1.9103,1.9102,1.9102,1.9101,1.9099,1.9107,1.9102,1.9102,1.9102,1.9102,1.9102,0,1.9048,1.9051,1.9055,1.9061,1.9064,1.9067,1.9071,1.9073,1.9075,1.9079,1.9081,1.9083,1.9085,1.9089,1.909,1.909,1.9091,1.909,1.9089,1.9089,1.9099,1.9098,1.9088,1.9088,1.9088,1.9088,1.9088,1.9088,1.9048,1.9051,1.9054,1.9058,1.9061,1.9064,1.9066,1.9068,1.907,1.9072,1.9074,1.9076,1.9078,1.908,1.908,1.9081,1.908,1.9078,1.9079,1.9088,1.9089,1.909,1.909,1.9078,1.9078,1.9069,1.9069,1.9069]}]]